Weather Roundup
Issued by NWS Springfield, MO

Home | Current Version | Previous Version | Text Only | Print | Product List | Glossary On
Versions: 1 2 3 4 5 6 7 8 9 10 11 12 13 14 15 16 17 18 19 20 21 22 23 24 25 26 27 28 29 30 31 32 33 34 35 36 37 38 39 40 41 42 43 44 45 46 47 48 49 50
000
NZUS99 KSGF 011657
HRRSGF

HOURLY WEATHER
NATIONAL WEATHER SERVICE SPRINGFIELD MO
1200 PM CDT TUE SEP 01 2015

......SGF CWA......

CITY           SKY/WX    TMP DP  RH WIND       PRES   REMARKS
SPRINGFIELD    SUNNY     85  67  54 S10       30.11S
JOPLIN         SUNNY     85  67  54 S13       30.08S
WEST PLAINS    SUNNY     84  68  58 VRB7      30.15S
ROLLA          SUNNY     87  68  52 SW8       30.10F HAZE    HX  90
BRANSON        MOSUNNY   84  68  58 S12       30.14R

......SURROUNDING SGF CWA......

CITY           SKY/WX    TMP DP  RH WIND       PRES   REMARKS
CHANUTE        SUNNY     84  68  58 S16       30.06S
PARSONS        SUNNY     84  71  65 VRB7      30.07S
COFFEYVILLE    SUNNY     85  69  58 S12       30.05F
EMPORIA        SUNNY     86  65  49 S16       30.02F

......KANSAS AND MISSOURI......

CITY           SKY/WX    TMP DP  RH WIND       PRES   REMARKS
KANSAS CTY INT MOSUNNY   86  69  56 SW14      30.03F HX  90
SEDALIA        SUNNY     89  68  49 SW10      30.08S HX  93
ST JOSEPH      SUNNY     85  70  60 S13       30.00F
ST LOUIS       SUNNY     90  70  51 SW6       30.10S HX  95
WICHITA        MOSUNNY   88  66  48 S16       30.00F HX  90
TOPEKA         SUNNY     86  67  52 S13       30.01F
OLATHE         SUNNY     82  69  64 SW8G18    30.04F

......TENNESSEE......

CITY           SKY/WX    TMP DP  RH WIND       PRES   REMARKS
MEMPHIS        NOT AVBL
NASHVILLE      PTSUNNY   87  65  47 E3        30.14F

......ARKANSAS.......

CITY           SKY/WX    TMP DP  RH WIND       PRES   REMARKS
FAYETTEVILLE   SUNNY     83  69  62 S8        30.12S
FT SMITH       SUNNY     86  69  56 VRB3      30.08F HX  90
LITTLE ROCK    CLOUDY    86  71  60 SE6       30.10S HX  91

......OKLAHOMA.......

CITY           SKY/WX    TMP DP  RH WIND       PRES   REMARKS
TULSA          SUNNY     86  70  58 S9        30.04S HX  90
PONCA CITY     SUNNY     87  69  54 S8        30.01F HX  91
MCALESTER      SUNNY     87  69  54 S8        30.07F HX  91
OKLAHOMA CITY  SUNNY     86  68  54 SW13      30.04F

......IOWA............

CITY           SKY/WX    TMP DP  RH WIND       PRES   REMARKS
DES MOINES     NOT AVBL
QUAD CITIES    SUNNY     87  71  58 SW9       30.01F HX  93

......ILLINOIS........

CITY           SKY/WX    TMP DP  RH WIND       PRES   REMARKS
QUINCY         NOT AVBL
CHICAGO        MOSUNNY   85  73  67 S7        30.04F HX  91



USA.gov is the U.S. government's official web portal to all federal, state and local government web resources and services.